Regional Weather Roundup
Issued by NWS

Home | Current Version | Previous Version | Graphics & Text | Print | Product List | Glossary On
Versions: 1 2 3 4 5 6 7 8 9 10 11 12 13 14 15 16 17 18 19 20 21 22 23 24 25 26 27 28
000
ASUS45 KCYS 110110
RWRWY

WYOMING REGIONAL WEATHER ROUNDUP
NATIONAL WEATHER SERVICE CHEYENNE WY
600 PM MST SUN DEC 10 2017

NOTE:  "FAIR" INDICATES FEW OR NO CLOUDS BELOW 12,000 FEET
WITH NO SIGNIFICANT WEATHER AND/OR OBSTRUCTIONS TO VISIBILITY.

WYZ001-110200-
YELLOWSTONE NATIONAL PARK

CITY           SKY/WX    TMP DP  RH WIND       PRES   REMARKS
LK YELLOWSTONE   N/A     16  13  88 CALM      30.56R
W YELLOWSTONE  NOT AVBL

$$
WYZ002>013-054>058-071-098>099-110200-
NORTHERN WYOMING

CITY           SKY/WX    TMP DP  RH WIND       PRES   REMARKS
JACKSON        FAIR      21  15  78 CALM      30.56F
CODY           FAIR      37  15  40 S5        30.33F WCI  33
GREYBULL       FAIR      32  15  49 SE3       30.33F
WORLAND        FAIR      29  21  72 S5        30.34R WCI  24
SHERIDAN       FAIR      43  16  33 S5        30.24S
BUFFALO        FAIR      46   5  18 NW3       30.26F
GILLETTE       FAIR      42  19  39 W12       30.23F
HULETT         FAIR      45  18  33 SW10      30.21F
NEWCASTLE      FAIR      36  14  41 N9        30.24S WCI  29

$$
WYZ014>020-022>026-101>103-110200-
CENTRAL WYOMING

CITY           SKY/WX    TMP DP  RH WIND       PRES   REMARKS
BIG PINEY      FAIR      32   0  25 N9        30.49R WCI  24
PINEDALE       FAIR      34   3  27 W16       30.47F WCI  23
DUBOIS         FAIR      37  -8  14 NW20      30.45S WCI  27
LANDER         FAIR      32  18  56 CALM      30.39R
RIVERTON       FAIR      26  16  65 E5        30.40S WCI  20
CASPER         FAIR      35  16  45 SW13      30.37R WCI  26
DOUGLAS        FAIR      38  18  44 NW13      30.31S WCI  30

$$
WYZ021-027>030-104>119-110200-
SOUTHERN WYOMING

CITY           SKY/WX    TMP DP  RH WIND       PRES   REMARKS
EVANSTON       FAIR      37  16  42 SW3       30.52F
FORT BRIDGER   FAIR      37   4  26 SW12      30.53F WCI  29
ROCK SPRINGS   FAIR      38   4  24 SW16      30.45F WCI  29
DIXON          FAIR      19  11  69 E5        30.53S WCI  13
RAWLINS        FAIR      34  10  37 SW13      30.45F WCI  25
SARATOGA       FAIR      28  16  59 S3        30.47S
LARAMIE        FAIR      29   3  33 CALM      30.39S
CHEYENNE       FAIR      41   3  20 W10       30.32S
TORRINGTON     FAIR      44   9  23 W14       30.26S
PINE BLUFFS    FAIR      28   0  29 MISG      30.31S

$$




USA.gov is the U.S. government's official web portal to all federal, state and local government web resources and services.